User: anonymous   Login
Location: Unspecified
(0.0000°N, 0.0000°E)
Time: 20:20:07
(UTC+00:00)
Language:

STARLINK-6056 - Orbit

View from above orbital plane
View from above orbital plane
View from above satellite
View from above satellite

Ground track
Ground track

The orbit is defined by the following mean orbital elements,

1 56813U          26145.45736190 +.00000000 +00000-0 +43423-5 0 00000
2 56813  69.9985 150.7213 0003570 266.0217  94.0534 14.98331850    06
Epoch (UTC): 25 May 2026 10:58:36
Eccentricity: 0.0003570
inclination: 69.9985°
perigee height: 570 km
apogee height: 575 km
right ascension of ascending node: 150.7213°
argument of perigee: 266.0217°
revolutions per day: 14.98331850
mean anomaly at epoch: 94.0534°

The dashed part of the orbit path shows where the satellite is in the earth's shadow,  

DLR